McComb, MS

8:05 PM CDT on May 21, 2018 (GMT -0500)
McComb-Pike County-Lewis

Weather History for KMCB - June, 2014

Change the Weather History Date:

Tuesday, June 10, 2014

  Actual Average Record
Temperature  
Mean Temperature 74 °F -  
Max Temperature 80 °F 90 °F 98 °F (1953)
Min Temperature 68 °F 66 °F 54 °F (1980)
Cooling Degree Days 9    
Growing Degree Days 24 (Base 50)    
Moisture  
Dew Point 70 °F    
Average Humidity 91    
Maximum Humidity 97    
Minimum Humidity 76    
Precipitation  
Precipitation 0.44 in - - ()
Sea Level Pressure  
Sea Level Pressure 29.85 in    
Wind  
Wind Speed 7 mph (South)    
Max Wind Speed 26 mph    
Max Gust Speed 38 mph    
Visibility 8 miles    
Events Rain , Thunderstorm    
Averages and records for this station are not official NWS values.
T = Trace of Precipitation, MM = Missing Value Source: NWS Daily Summary

Daily Weather History Graph

Daily Weather History Graph

Search for Another Location

Airport or City:

Astronomy

Jun. 10, 2014 Rise Set
Actual Time 5:57 AM CDT 8:05 PM CDT
Civil Twilight 5:29 AM CDT 8:33 PM CDT
Nautical Twilight 4:55 AM CDT 9:07 PM CDT
Astronomical Twilight 4:19 AM CDT 9:43 PM CDT
Moon 5:39 PM CDT (6/10) 3:52 AM CDT (6/10)
Length of Visible Light 15h 03m
Length of Day
14h 08m
Waxing Gibbous, 92% of the Moon is Illuminated
Jun 10
Waxing Gibbous
Jun 12
Full
Jun 19
Last Quarter
Jun 27
New
Jul 5
First Quarter

Hourly Weather History & Observations

Time (CDT) Temp. Heat Index Dew Point Humidity Pressure Visibility Wind Dir Wind Speed Gust Speed Precip Events Conditions
12:53 AM 70.0 °F - 68.0 °F 93% 29.88 in 10.0 mi Calm Calm - N/A   Clear
1:53 AM 69.1 °F - 66.9 °F 93% 29.87 in 8.0 mi Calm Calm - N/A   Clear
2:53 AM 70.0 °F - 68.0 °F 93% 29.84 in 10.0 mi SSE 4.6 mph - N/A   Clear
3:53 AM 72.0 °F - 70.0 °F 93% 29.84 in 10.0 mi South 9.2 mph - N/A   Clear
4:53 AM 73.0 °F - 71.1 °F 93% 29.83 in 10.0 mi South 9.2 mph - N/A   Clear
5:53 AM 73.9 °F - 72.0 °F 93% 29.84 in 8.0 mi South 8.1 mph - N/A   Mostly Cloudy
6:00 AM 73.9 °F - 72.0 °F 93% 29.86 in 7.0 mi South 8.1 mph - N/A   Mostly Cloudy
6:53 AM 75.0 °F - 73.0 °F 94% 29.85 in 7.0 mi South 6.9 mph - N/A   Mostly Cloudy
7:06 AM 75.0 °F - 73.0 °F 94% 29.86 in 7.0 mi South 8.1 mph - N/A   Overcast
7:16 AM 75.0 °F - 73.0 °F 94% 29.86 in 7.0 mi South 9.2 mph - N/A   Overcast
7:53 AM 75.0 °F - 73.0 °F 94% 29.86 in 7.0 mi South 9.2 mph - N/A   Overcast
8:00 AM 75.0 °F - 73.0 °F 94% 29.87 in 7.0 mi South 9.2 mph - N/A   Overcast
8:05 AM 75.0 °F - 73.0 °F 94% 29.87 in 6.0 mi South 8.1 mph - 0.01 in Rain Light Rain
8:19 AM 75.0 °F - 73.9 °F 96% 29.87 in 7.0 mi South 9.2 mph - 0.01 in Rain , Thunderstorm Light Rain
8:41 AM 75.9 °F - 73.9 °F 94% 29.88 in 7.0 mi South 11.5 mph - 0.02 in   Overcast
8:50 AM 75.2 °F - 73.4 °F 94% 29.88 in 9.0 mi South 12.7 mph - 0.02 in Thunderstorm Overcast
8:53 AM 75.9 °F - 73.9 °F 94% 29.86 in 8.0 mi South 10.4 mph - 0.02 in Thunderstorm Overcast
9:00 AM 73.9 °F - 72.0 °F 93% 29.92 in 1.8 mi West 26.5 mph 38.0 mph 0.07 in Rain , Thunderstorm Rain
9:06 AM 70.0 °F - 66.9 °F 90% 29.92 in 0.8 mi West 16.1 mph 38.0 mph 0.17 in Rain , Thunderstorm Heavy Thunderstorms and Rain
9:08 AM 70.0 °F - 66.9 °F 90% 29.93 in 0.8 mi WSW 12.7 mph 36.8 mph 0.18 in Rain , Thunderstorm Heavy Thunderstorms and Rain
9:15 AM 69.1 °F - 66.9 °F 93% 29.92 in 1.8 mi WSW 12.7 mph 20.7 mph 0.23 in Rain , Thunderstorm Heavy Thunderstorms and Rain
9:24 AM 69.1 °F - 66.9 °F 93% 29.92 in 2.5 mi SW 6.9 mph 20.7 mph 0.26 in Rain , Thunderstorm Thunderstorms and Rain
9:32 AM 69.1 °F - 66.9 °F 93% 29.91 in 4.0 mi Variable 6.9 mph - 0.27 in Rain , Thunderstorm Light Thunderstorms and Rain
9:42 AM 68.0 °F - 66.0 °F 93% 29.91 in 5.0 mi South 8.1 mph - 0.28 in Rain Light Rain
9:49 AM 68.0 °F - 66.2 °F 94% 29.94 in 7.0 mi South 9.2 mph - 0.29 in Rain Light Rain
10:53 AM 68.0 °F - 66.0 °F 93% 29.90 in 4.0 mi SSW 6.9 mph - 0.10 in Rain Rain
12:31 PM 68.0 °F - 66.9 °F 96% 29.90 in 4.0 mi SW 8.1 mph - 0.12 in Rain , Thunderstorm Light Rain
12:42 PM 68.0 °F - 66.9 °F 96% 29.91 in 3.0 mi SSW 8.1 mph - 0.14 in Rain , Thunderstorm Rain
12:49 PM 68.0 °F - 66.2 °F 94% 29.90 in 7.0 mi South 9.2 mph - 0.15 in Rain Light Rain
12:53 PM 68.0 °F - 66.9 °F 96% 29.89 in 10.0 mi South 9.2 mph - 0.15 in Rain Light Rain
2:32 PM 70.0 °F - 68.0 °F 93% 29.88 in 10.0 mi SSE 8.1 mph - 0.02 in Rain Light Rain
2:53 PM 71.1 °F - 69.1 °F 93% 29.84 in 10.0 mi SSE 8.1 mph - 0.02 in   Mostly Cloudy
3:00 PM 72.0 °F - 69.1 °F 91% 29.85 in 10.0 mi SSE 9.2 mph - N/A   Mostly Cloudy
3:21 PM 73.9 °F - 70.0 °F 87% 29.85 in 10.0 mi South 10.4 mph - N/A   Mostly Cloudy
4:37 PM 79.0 °F - 71.1 °F 77% 29.83 in 10.0 mi SSW 13.8 mph - N/A   Mostly Cloudy
4:51 PM 78.8 °F - 71.6 °F 78% 29.82 in 10.0 mi South 9.2 mph - N/A   Scattered Clouds
4:53 PM 79.0 °F - 71.1 °F 77% 29.81 in 10.0 mi South 11.5 mph - N/A   Scattered Clouds
5:21 PM 80.1 °F 83.8 °F 72.0 °F 76% 29.80 in 10.0 mi South 10.4 mph - N/A   Mostly Cloudy
5:40 PM 80.1 °F 83.8 °F 72.0 °F 76% 29.79 in 10.0 mi South 9.2 mph - N/A   Partly Cloudy
5:53 PM 79.0 °F - 72.0 °F 79% 29.77 in 10.0 mi SSE 12.7 mph - N/A   Partly Cloudy
6:53 PM 78.1 °F - 72.0 °F 81% 29.77 in 10.0 mi South 6.9 mph - N/A   Partly Cloudy
7:53 PM 77.0 °F - 72.0 °F 84% 29.77 in 10.0 mi South 9.2 mph - N/A   Overcast
8:06 PM 77.0 °F - 73.0 °F 88% 29.79 in 10.0 mi SSW 4.6 mph - N/A   Overcast
8:31 PM 75.9 °F - 73.0 °F 91% 29.79 in 10.0 mi South 9.2 mph - 0.00 in   Scattered Clouds
8:49 PM 75.2 °F - 73.4 °F 94% 29.79 in 10.0 mi SW 4.6 mph - 0.00 in   Mostly Cloudy
8:53 PM 75.0 °F - 73.0 °F 94% 29.77 in 10.0 mi Variable 4.6 mph - 0.00 in   Mostly Cloudy
9:07 PM 75.0 °F - 73.0 °F 94% 29.78 in 10.0 mi South 6.9 mph - N/A   Mostly Cloudy
9:13 PM 75.0 °F - 72.0 °F 90% 29.78 in 10.0 mi South 9.2 mph - N/A   Mostly Cloudy
9:57 PM 73.0 °F - 69.1 °F 87% 29.83 in 1.8 mi WNW 10.4 mph 19.6 mph 0.13 in Rain , Thunderstorm Heavy Rain
10:06 PM 72.0 °F - 69.1 °F 91% 29.84 in 2.0 mi Variable 3.5 mph - 0.15 in Rain , Thunderstorm Light Rain
10:13 PM 73.0 °F - 70.0 °F 90% 29.85 in 10.0 mi North 3.5 mph - 0.15 in Thunderstorm Mostly Cloudy
10:34 PM 72.0 °F - 70.0 °F 93% 29.85 in 10.0 mi North 4.6 mph - 0.15 in   Mostly Cloudy
10:53 PM 72.0 °F - 69.1 °F 91% 29.84 in 10.0 mi North 5.8 mph - 0.15 in   Mostly Cloudy
11:53 PM 70.0 °F - 69.1 °F 97% 29.86 in 6.0 mi SSE 3.5 mph - N/A   Mostly Cloudy